Location: Newark
(35.2672°N, 80.7344°W)
Time: 01:07:00
(UTC+00:00)

Vanguard 2 Rocket - Pass Details

Date: 19 January 2020
Orbit: 553 x 3327 km, 32.9° (Epoch: 25 February)

Event Time Altitude Azimuth Distance (km) Brightness Sun altitude
Rises 19:50:29 0° 272° (W) 6,002 11.5 25.6°
Reaches altitude 10° 19:55:55 10° 256° (WSW) 5,433 11.8 25.0°
Maximum altitude 20:06:11 19° 219° (SW) 5,261 14.0 23.7°
Drops below altitude 10° 20:18:02 10° 182° (S) 6,276 12.1 22.1°
Sets 20:25:23 0° 167° (SSE) 7,227 12.0 21.1°
